Starlink 31845

operational
NORAD ID: 60129 Int'l Des: 2024-118 Owner: SPXS Country: US Constellation: starlink
LEOCIRCULAR

About Starlink 31845

Description loading...

Live Position

Loading 3D Globe...

Upcoming Passes

Altitude History

Altitude vs Time

uPlot chart will show altitude changes over time

Two-Line Element Set

1 60129U 24118S 26095.18734843 -.00001837 00000-0 -49921-4 0 9994
2 60129 53.1600 261.4776 0001329 93.1710 266.9443 15.30187799 99781
Epoch: Apr 5, 2026 • Age: 12 hours

Current Status

Altitude 492.9 km
Velocity 7.62 km/s
Sub-Earth Point -48.78°S, 115.84°E
Launch Date Jun 24, 2024
Age 1.7 years
Type internet

Technical Details

Classification Payload
Mass 730.00 kg
Dry Mass 700.00 kg
Total Mass 730.00 kg
Length 0.30 m
Diameter 4.10 m
Span 29.00 m
Shape Box + pan
Manufacturer SPXS
Bus Type Starlink V2M
Phase Status In Orbit
Owner/State SPXS/US

Large Constellations

Loading constellations...